Regional Weather Roundup
Issued by NWS

Home | Current Version | Previous Version | Graphics & Text | Print | Product List | Glossary On
Versions: 1 2 3 4 5 6 7 8 9 10 11 12 13 14 15 16 17 18 19 20 21 22 23 24 25 26 27 28 29 30 31 32 33 34 35 36 37 38 39 40 41 42 43 44 45 46 47 48 49 50
000
ASUS43 KLOT 230606
RWRIL

ILLINOIS REGIONAL WEATHER ROUNDUP
NATIONAL WEATHER SERVICE CHICAGO/ROMEOVILLE IL
100 AM CDT WED JUL 23 2014

NOTE: "FAIR" INDICATES FEW OR NO CLOUDS BELOW 12,000 FEET WITH NO
SIGNIFICANT WEATHER AND/OR OBSTRUCTIONS TO VISIBILITY.

* THESE STATIONS ARE NOT UNDER NWS QUALITY CONTROL. THEY ALSO MAY NOT
  REPORT WEATHER SUCH AS PRECIPITATION OR FOG.

ILZ001-002-007-009-015-016-024-230700-
NORTHWEST ILLINOIS

CITY           SKY/WX    TMP DP  RH WIND       PRES   REMARKS
MOLINE         CLEAR     78  69  73 N6        30.04R HX  80
6HR MIN TEMP:  78; 6HR MAX TEMP:  85;

STERLING*      MOCLDY    75  68  78 NE9       30.04R
SAVANNA*       PTCLDY    76  65  69 N10       30.04R
$$

ILZ003-004-008-010-011-017-018-230700-
NORTH CENTRAL ILLINOIS

CITY           SKY/WX    TMP DP  RH WIND       PRES   REMARKS
ROCKFORD       PTCLDY    77  64  64 NE18      30.05R
6HR MIN TEMP:  77; 6HR MAX TEMP:  87;

FREEPORT*      CLEAR     71  65  82 N7        30.08R
ROCHELLE*      MOCLDY    77  65  67 N14       30.04R
DE KALB*       MOCLDY    75  67  76 N9        30.04R
PERU*          CLOUDY    78  75  88 NW7       30.02R HX  81
$$

ILZ005-006-012>014-019>023-230700-
NORTHEAST ILLINOIS

CITY           SKY/WX    TMP DP  RH WIND       PRES   REMARKS
CHICAGO-OHARE  CLOUDY    74  63  68 NE18G24   30.02R
6HR MIN TEMP:  74; 6HR MAX TEMP:  87; 6HR PCP:  0.01;

CHICAGO-MIDWAY CLOUDY    77  71  82 NE16      30.01R
6HR MIN TEMP:  76; 6HR MAX TEMP:  88; 6HR PCP:  0.19;

AURORA         MOCLDY    78  69  73 N9        30.01R HX  80
6HR MIN TEMP:  78; 6HR MAX TEMP:  86;

LANSING*       TSTM      71  68  89 CALM      30.00R
JOLIET*        MOCLDY    76  71  84 N15G24    30.01R
WAUKEGAN       MOCLDY    66  61  84 N17G26    30.03R
6HR MIN TEMP:  66; 6HR MAX TEMP:  86; 6HR PCP:  0.05;

DUPAGE AIRPORT CLOUDY    75  66  73 NE13      30.01R
6HR MIN TEMP:  75; 6HR MAX TEMP:  86; 6HR PCP:  0.16;

KANKAKEE*      PTCLDY    75  73  96 SW3       29.99F FOG
WHEELING       CLOUDY    73  65  75 NE17G32   30.04R
6HR MIN TEMP:  73; 6HR MAX TEMP:  88; 6HR PCP:  0.02;

MORRIS*        MOCLDY    78  76  92 N3        29.98S THUNDER HX  82
ROMEOVILLE*    CLOUDY    75  68  79 NE17G26   30.01R
NORTHERLY ISL    N/A     71  68  90 N12         N/A
$$

LMZ740>746-230700-
SOUTHERN LAKE MICHIGAN

STATION/POSITION SKY/WX   TEMP    WIND        PRES    VSBY  WAVE
                          AIR SEA DIR/SP/G                  HT/PER
                          (F)     (DEG/KT/KT) (MB)    (MI)  (FT/S)
SOUTHERN BUOY              65 63  360/ 25/ 31 1015.6R         3/ 4
WAUKEGAN HARBOR            65      10/ 25/ 30 1017.6R
HARRISON CRIB              73      10/ 20/ 27   N/A
BURNHAM HARBOR             70      30/ 16/ 21   N/A
CALUMET HARBOR             71      20/  7/ 10 1014.8F
BURNS HARBOR               77      10/ 19/ 22 1016.3R
MICHIGAN CITY              72     250/ 16/ 22   N/A
$$

ILZ025>027-034>036-040-047-049-050-058-095>099-230700-
WEST-CENTRAL ILLINOIS

CITY           SKY/WX    TMP DP  RH WIND       PRES   REMARKS
QUINCY         PTCLDY    79  76  90 NE3       30.03R HX  83
GALESBURG*     MOCLDY    75  75  98 NW6       30.04R
MACOMB*        PTCLDY    74  74  99 NW7       30.05S FOG
JACKSONVILLE*  MOCLDY    78  75  91 CALM      30.03R HX  81
PITTSFIELD*    MOCLDY    78  75  90 CALM      30.03R FOG     HX  80
$$

ILZ028>032-037-038-041>044-048-051>054-059>061-230700-
CENTRAL ILLINOIS

CITY           SKY/WX    TMP DP  RH WIND       PRES   REMARKS
PONTIAC        PTCLDY    77  75  94 W3        29.99S FOG
BLOOMINGTON    PTCLDY    76  71  84 SW8       30.02S
PEORIA         PTCLDY    81  74  79 W6        30.01R HX  86
6HR MIN TEMP:  80; 6HR MAX TEMP:  84;

LACON*         CLOUDY    78  74  87 NW5       30.00R HX  81
LINCOLN*       CLEAR     77  72  83 CALM      29.98S
SPRINGFIELD    MOCLDY    79  72  79 CALM      30.01S HX  82
6HR MIN TEMP:  79; 6HR MAX TEMP:  84;

TAYLORVILLE    CLOUDY    73  68  83 S3        30.01S
$$

ILZ033-039-045-046-055>057-062-063-230700-
EAST-CENTRAL ILLINOIS

CITY           SKY/WX    TMP DP  RH WIND       PRES   REMARKS
CHAMPAIGN      MOCLDY    75  69  81 SW7       30.02R
RANTOUL*       MOCLDY    76  70  81 SW5       30.02R
MATTOON        MOCLDY    76  68  76 SW7       30.01S
PARIS*         PTCLDY    72  68  89 SW3       30.02S
$$

ILZ079-100>102-230700-
SOUTHWEST ILLINOIS

CITY           SKY/WX    TMP DP  RH WIND       PRES   REMARKS
ALTON          CLOUDY    79  73  84 S5        30.02R HX  82
CAHOKIA*       MOCLDY    79  70  74 CALM      30.01S HX  82
SPARTA*        MOCLDY    77  68  73 S6        30.04S
$$

ILZ064>066-069>071-074>076-080>082-084>086-088>090-092>094-230700-
SOUTH-CENTRAL ILLINOIS

CITY           SKY/WX    TMP DP  RH WIND       PRES   REMARKS
CARBONDALE     PTCLDY    71  68  90 CALM      30.04S
6HR MIN TEMP:  71; 6HR MAX TEMP:  85;

CAIRO*         CLEAR     73  69  88 CALM      30.05S FOG
MARION         CLEAR     72  70  94 CALM      30.05F FOG
MT. VERNON     PTCLDY    72  66  83 CALM      30.04F
CENTRALIA*     PTCLDY    73  67  83 S5        30.03S
SALEM*         PTCLDY    76  71  82 S6        30.02F
METROPOLIS*    CLEAR     72  70  93 CALM      30.03F FOG
$$

ILZ067-068-072-073-078-083-087-091-230700-
SOUTHEAST ILLINOIS

CITY           SKY/WX    TMP DP  RH WIND       PRES   REMARKS
FLORA*         CLEAR     70  68  93 S3        30.03F
FAIRFIELD*     FOG       70  70 100 CALM      30.03F VSB 1
HARRISBURG*    CLEAR     69  69  99 CALM      30.06R FOG
ROBINSON*      CLEAR     71  69  94 CALM      30.03F FOG
CARMI*         CLEAR     69  69  98 CALM      30.04S FOG
$$

ABBREVIATIONS USED IN REMARKS
   TC - TEMPERATURE IN CELSIUS
  WCI - WIND CHILL INDEX
   HX - HEAT INDEX
  VSB - VISIBILITY
$$




USA.gov is the U.S. government's official web portal to all federal, state and local government web resources and services.